GW0883 Weather Reports


Display with metric or nautical units.
time (UTC)temp
F
wind
direction
speed
MPH
gust
MPH
rain 1hr
in
rain 24hr
in
rain mn
in
humidity
%
barometer
mb
20260509012336 46 225 0.0 0.0 0.00 0.00 0.00 40 1014.8
20260509011337 46 225 0.0 0.0 0.00 0.00 0.00 41 1014.5
20260509010338 47 225 0.0 0.0 0.00 0.00 0.00 40 1014.4
20260509005335 49 225 0.0 0.0 0.00 0.00 0.00 40 1014.3
20260509004337 50 225 0.0 0.0 0.00 0.00 0.00 40 1014.0
20260509003338 51 225 0.0 0.0 0.00 0.00 0.00 39 1013.9
20260509002436 52 270 0.0 0.0 0.00 0.00 0.00 39 1013.6
20260509001437 53 292 0.0 0.0 0.00 0.00 0.00 39 1013.5
20260509000535 53 202 1.0 3.0 0.00 0.00 0.00 40 1013.3
20260508235538 53 225 0.0 1.0 0.00 0.00 0.00 40 1013.0
20260508234635 53 223 0.0 2.0 0.00 0.00 0.00 40 1012.9
20260508233639 53 202 0.0 1.0 0.00 0.00 0.00 40 1012.7
20260508232637 53 285 0.0 1.0 0.00 0.00 0.00 40 1012.8
20260508231635 54 270 0.0 0.0 0.00 0.00 0.00 39 1012.5
20260508230636 54 254 1.0 3.0 0.00 0.00 0.00 40 1012.4
20260508225638 55 290 0.0 2.0 0.00 0.00 0.00 39 1012.4
20260508222736 55 244 2.0 6.0 0.00 0.00 0.00 39 1012.2
20260508221735 55 217 3.0 6.0 0.00 0.00 0.00 40 1012.3
20260508220737 55 241 0.0 3.0 0.00 0.00 0.00 40 1012.3
20260508215752 56 242 4.0 6.0 0.00 0.00 0.00 40 1012.4
20260508214735 58 216 4.0 6.0 0.00 0.00 0.00 39 1012.1
20260508213739 58 218 3.0 6.0 0.00 0.00 0.00 39 1012.1
20260508212836 57 231 4.0 7.0 0.00 0.00 0.00 40 1012.2
20260508211838 57 213 4.0 7.0 0.00 0.00 0.00 39 1012.1
20260508210837 58 265 4.0 6.0 0.00 0.00 0.00 39 1011.9
20260508205837 57 242 3.0 6.0 0.00 0.00 0.00 39 1011.8
20260508204838 57 222 2.0 7.0 0.00 0.00 0.00 40 1011.8
20260508203836 58 234 5.0 7.0 0.00 0.00 0.00 40 1011.8
20260508202836 59 248 3.0 5.0 0.00 0.00 0.00 40 1011.8
20260508201837 58 214 3.0 7.0 0.00 0.00 0.00 40 1011.8
20260508200836 59 238 4.0 7.0 0.00 0.00 0.00 42 1011.8
20260508194837 58 242 2.0 5.0 0.00 0.00 0.00 41 1011.7
20260508193838 57 224 2.0 5.0 0.00 0.00 0.00 43 1011.5
20260508190837 56 233 3.0 5.0 0.00 0.00 0.00 42 1011.9
20260508185837 57 227 4.0 9.0 0.00 0.00 0.00 43 1012.0
20260508184935 58 263 6.0 10.0 0.00 0.00 0.00 43 1011.7
20260508183938 58 222 2.0 4.0 0.00 0.00 0.00 44 1011.7
20260508182035 57 265 5.0 9.0 0.00 0.00 0.00 44 1011.8
20260508181039 57 239 5.0 8.0 0.00 0.00 0.00 43 1011.8
20260508175235 58 186 0.0 3.0 0.00 0.00 0.00 44 1011.7
20260508174237 58 230 3.0 7.0 0.00 0.00 0.00 44 1011.7
20260508173335 58 177 1.0 3.0 0.00 0.00 0.00 46 1011.8
20260508172338 58 312 3.0 6.0 0.00 0.00 0.00 46 1011.7
20260508171435 57 220 1.0 3.0 0.00 0.00 0.00 45 1011.8
20260508170438 57 213 1.0 3.0 0.00 0.00 0.00 47 1011.7
20260508165437 56 243 7.0 9.0 0.00 0.00 0.00 46 1011.8
20260508164437 56 222 3.0 7.0 0.00 0.00 0.00 47 1011.9
20260508163437 56 209 5.0 9.0 0.00 0.00 0.00 48 1012.0
20260508162437 56 271 3.0 7.0 0.00 0.00 0.00 48 1012.0
20260508160635 56 241 5.0 12.0 0.00 0.00 0.00 48 1011.8
20260508155639 56 238 3.0 4.0 0.00 0.00 0.00 49 1011.9
20260508152838 56 245 6.0 10.0 0.00 0.00 0.00 49 1012.0
20260508150837 56 227 9.0 13.0 0.00 0.00 0.00 50 1012.1
20260508145837 56 242 3.0 5.0 0.00 0.00 0.00 51 1012.0
20260508144937 56 351 2.0 4.0 0.00 0.00 0.00 51 1012.2
20260508143935 57 221 5.0 8.0 0.00 0.00 0.00 52 1012.2
20260508142937 55 26 0.0 2.0 0.00 0.00 0.00 53 1012.2
20260508141936 56 238 4.0 7.0 0.00 0.00 0.00 53 1012.4
20260508140936 56 215 3.0 6.0 0.00 0.00 0.00 54 1012.4
20260508135937 55 281 1.0 4.0 0.00 0.00 0.00 53 1012.6
20260508135035 55 221 3.0 6.0 0.00 0.00 0.00 55 1012.7
20260508133037 54 337 1.0 3.0 0.00 0.00 0.00 54 1012.7
20260508132037 55 253 3.0 5.0 0.00 0.00 0.00 56 1012.9
20260508131037 54 174 1.0 2.0 0.00 0.00 0.00 56 1012.8
20260508130135 53 237 2.0 4.0 0.00 0.00 0.00 56 1012.9
20260508124139 53 203 3.0 7.0 0.00 0.00 0.00 57 1013.1
20260508123235 52 294 2.0 5.0 0.00 0.00 0.00 58 1012.8
20260508122236 52 259 2.0 5.0 0.00 0.00 0.00 58 1012.9
20260508121238 51 217 1.0 3.0 0.00 0.00 0.00 58 1012.8
20260508120336 50 263 4.0 6.0 0.00 0.00 0.00 58 1012.8
20260508115337 50 216 2.0 5.0 0.00 0.00 0.00 57 1012.8
20260508114437 49 222 5.0 10.0 0.00 0.00 0.00 58 1012.7
20260508112535 47 180 0.0 1.0 0.00 0.00 0.00 58 1012.7
20260508110537 44 225 0.0 0.0 0.00 0.00 0.00 58 1012.4
20260508105536 43 225 0.0 0.0 0.00 0.00 0.00 58 1012.4
20260508103537 40 247 0.0 0.0 0.00 0.00 0.00 56 1012.1
20260508102538 38 247 0.0 0.0 0.00 0.00 0.00 55 1011.9
20260508101538 37 247 0.0 0.0 0.00 0.00 0.00 55 1011.7
20260508095735 39 247 0.0 0.0 0.00 0.00 0.00 55 1011.4
20260508094739 39 247 0.0 0.0 0.00 0.00 0.00 54 1011.3
20260508093836 39 247 0.0 0.0 0.00 0.00 0.00 55 1011.3
20260508092838 39 247 0.0 0.0 0.00 0.00 0.00 54 1011.4
20260508091838 39 247 0.0 1.0 0.00 0.01 0.00 54 1011.2
20260508085937 39 247 0.0 0.0 0.00 0.01 0.00 53 1011.2
20260508084937 39 247 0.0 0.0 0.00 0.01 0.00 52 1011.2
20260508082037 39 247 0.0 2.0 0.00 0.02 0.00 51 1011.0
20260508081137 39 247 0.0 1.0 0.00 0.02 0.00 52 1010.9
20260508080137 39 247 1.0 1.0 0.00 0.02 0.00 51 1010.8
20260508075139 39 247 0.0 1.0 0.00 0.02 0.00 51 1010.5
20260508074237 39 247 0.0 1.0 0.00 0.02 0.00 50 1010.5
20260508073235 39 247 0.0 0.0 0.00 0.02 0.00 50 1010.2
20260508072237 39 247 0.0 1.0 0.00 0.03 0.00 49 1010.1
20260508070335 39 292 0.0 2.0 0.00 0.03 0.00 49 1009.9
20260508064337 39 292 0.0 0.0 0.00 0.03 0.00 48 1009.7
20260508063436 39 292 0.0 1.0 0.00 0.03 0.00 47 1009.9
20260508062438 39 292 0.0 1.0 0.00 0.03 0.00 47 1009.9
20260508061438 39 292 0.0 0.0 0.00 0.03 0.00 47 1010.1
20260508060436 39 292 0.0 0.0 0.00 0.03 0.00 46 1010.1
20260508055436 39 292 0.0 0.0 0.00 0.03 0.00 46 1010.1
20260508054437 40 292 0.0 0.0 0.00 0.03 0.00 46 1010.2
20260508053536 40 292 0.0 0.0 0.00 0.03 0.00 46 1010.4
20260508052634 40 292 0.0 0.0 0.00 0.03 0.00 46 1010.5
20260508051638 41 292 0.0 0.0 0.00 0.03 0.00 45 1010.6
20260508050735 41 292 0.0 0.0 0.00 0.03 0.00 44 1010.8
20260508044836 42 292 0.0 1.0 0.00 0.03 0.00 44 1010.7
20260508043837 42 292 0.0 1.0 0.00 0.03 0.00 44 1010.7
20260508042036 42 225 0.0 0.0 0.00 0.03 0.00 43 1010.9
20260508041036 43 225 0.0 0.0 0.00 0.03 0.00 43 1010.8
20260508040135 43 225 0.0 1.0 0.00 0.03 0.00 43 1010.8
20260508035216 43 225 0.0 1.0 0.00 0.04 0.03 42 1010.8
20260508034215 44 225 0.0 0.0 0.00 0.04 0.03 42 1010.8
20260508033216 44 225 0.0 0.0 0.00 0.04 0.03 41 1010.8
20260508031315 44 225 0.0 0.0 0.00 0.04 0.03 42 1010.8
20260508031216 44 225 0.0 1.0 0.00 0.04 0.03 42 1010.9
20260508030217 45 225 0.0 2.0 0.00 0.04 0.03 42 1010.8
20260508025218 45 225 0.0 0.0 0.00 0.04 0.03 40 1010.8
20260508024216 45 225 0.0 0.0 0.00 0.04 0.03 40 1010.9
20260508021216 46 270 0.0 0.0 0.00 0.04 0.03 40 1010.9
20260508020217 46 270 0.0 0.0 0.00 0.04 0.03 39 1011.0
20260508015218 46 270 0.0 0.0 0.00 0.04 0.03 40 1011.0
20260508014315 47 270 0.0 0.0 0.00 0.04 0.03 39 1010.9
20260508013315 47 270 0.0 0.0 0.00 0.04 0.03 39 1010.8